When you browse on this site, cookies collect data to enhance your experience and personalize the content and advertising you see.
Visit our Privacy Policy to learn more. By continuing to use the site, you agree to this use of cookies and data.
  • în România
  • Lista ţărilor
  • Pe 7 zile
  • Temperatura apei
  • Hartă satelitară
  • Meteo pe hartă
  • Widget-uri
  • user-avatar
    Intrare

    Meteo pe oră la Ocotal

    Astăzi, 23 Mai, Joi

    Timp Temperatura Precipitaţii Vânt Presiune Umiditate
    00:00 +25°C° 0 mm 1 m/s 707 mmHg 90%
    01:00 +25°C° 1.3 mm 1 m/s 706 mmHg 91%
    02:00 +25°C° 1.3 mm 1 m/s 706 mmHg 92%
    03:00 +24°C° 1.3 mm 1 m/s 706 mmHg 93%
    04:00 +24°C° 0.1 mm 1 m/s 706 mmHg 93%
    05:00 +24°C° 0.1 mm 1 m/s 706 mmHg 93%
    06:00 +24°C° 0 mm 1 m/s 706 mmHg 92%
    07:00 +25°C° 0 mm 1 m/s 707 mmHg 87%
    08:00 +26°C° 0 mm 1 m/s 707 mmHg 82%
    09:00 +28°C° 0 mm 2 m/s 707 mmHg 77%
    10:00 +28°C° 0.3 mm 2 m/s 707 mmHg 75%
    11:00 +29°C° 0.3 mm 2 m/s 707 mmHg 73%
    12:00 +29°C° 0.3 mm 2 m/s 706 mmHg 71%
    13:00 +29°C° 1.3 mm 2 m/s 706 mmHg 72%
    14:00 +29°C° 1.3 mm 2 m/s 706 mmHg 72%
    15:00 +29°C° 1.3 mm 2 m/s 706 mmHg 73%
    16:00 +28°C° 2.5 mm 2 m/s 706 mmHg 79%
    17:00 +27°C° 2.5 mm 1 m/s 706 mmHg 84%
    18:00 +26°C° 2.5 mm 1 m/s 706 mmHg 90%
    19:00 +25°C° 1.7 mm 1 m/s 706 mmHg 91%
    20:00 +25°C° 1.7 mm 1 m/s 706 mmHg 91%
    21:00 +25°C° 1.7 mm 1 m/s 707 mmHg 92%
    22:00 +25°C° 0.6 mm 1 m/s 707 mmHg 92%
    23:00 +24°C° 0.6 mm 1 m/s 707 mmHg 93%

    Mâine, 24 Mai, Vineri

    Timp Temperatura Precipitaţii Vânt Presiune Umiditate
    00:00 +24°C° 0.6 mm 1 m/s 707 mmHg 93%
    01:00 +24°C° 0.2 mm 1 m/s 707 mmHg 94%
    02:00 +24°C° 0.2 mm 1 m/s 706 mmHg 94%
    03:00 +24°C° 0.2 mm 1 m/s 706 mmHg 95%
    04:00 +24°C° 0.2 mm 1 m/s 706 mmHg 94%
    05:00 +24°C° 0.2 mm 1 m/s 706 mmHg 94%
    06:00 +24°C° 0.2 mm 1 m/s 706 mmHg 94%
    07:00 +25°C° 0.1 mm 1 m/s 706 mmHg 88%
    08:00 +26°C° 0.1 mm 2 m/s 707 mmHg 83%
    09:00 +27°C° 0.1 mm 2 m/s 707 mmHg 78%
    10:00 +28°C° 0.3 mm 2 m/s 707 mmHg 73%
    11:00 +29°C° 0.3 mm 2 m/s 707 mmHg 69%
    12:00 +30°C° 0.3 mm 2 m/s 707 mmHg 64%
    13:00 +30°C° 0.8 mm 2 m/s 706 mmHg 65%
    14:00 +30°C° 0.8 mm 2 m/s 706 mmHg 66%
    15:00 +30°C° 0.8 mm 2 m/s 705 mmHg 67%
    16:00 +29°C° 1.5 mm 2 m/s 705 mmHg 73%
    17:00 +27°C° 1.5 mm 1 m/s 705 mmHg 80%
    18:00 +26°C° 1.5 mm 1 m/s 705 mmHg 86%
    19:00 +25°C° 0.8 mm 1 m/s 706 mmHg 88%
    20:00 +25°C° 0.8 mm 1 m/s 707 mmHg 90%
    21:00 +24°C° 0.8 mm 1 m/s 707 mmHg 92%
    22:00 +24°C° 0.5 mm 1 m/s 707 mmHg 92%
    23:00 +24°C° 0.5 mm 1 m/s 707 mmHg 93%

    Poimâine, 25 Mai, Sâmbătă

    Timp Temperatura Precipitaţii Vânt Presiune Umiditate
    00:00 +24°C° 0.5 mm 1 m/s 707 mmHg 93%
    01:00 +24°C° 0.4 mm 1 m/s 706 mmHg 93%
    02:00 +24°C° 0.4 mm 1 m/s 706 mmHg 93%
    03:00 +24°C° 0.4 mm 1 m/s 706 mmHg 93%
    04:00 +24°C° 0.1 mm 1 m/s 706 mmHg 93%
    05:00 +24°C° 0.1 mm 1 m/s 706 mmHg 93%
    06:00 +24°C° 0.1 mm 1 m/s 706 mmHg 93%
    07:00 +24°C° 0 mm 1 m/s 706 mmHg 89%
    08:00 +25°C° 0 mm 2 m/s 707 mmHg 84%
    09:00 +26°C° 0 mm 2 m/s 707 mmHg 80%
    10:00 +27°C° 0.1 mm 2 m/s 707 mmHg 75%
    11:00 +28°C° 0.1 mm 2 m/s 707 mmHg 70%
    12:00 +29°C° 0.1 mm 2 m/s 707 mmHg 65%
    13:00 +30°C° 0.8 mm 2 m/s 706 mmHg 65%
    14:00 +30°C° 0.8 mm 2 m/s 705 mmHg 65%
    15:00 +30°C° 0.8 mm 2 m/s 705 mmHg 65%
    16:00 +28°C° 1.8 mm 2 m/s 705 mmHg 73%
    17:00 +27°C° 1.8 mm 2 m/s 705 mmHg 80%
    18:00 +25°C° 1.8 mm 1 m/s 705 mmHg 87%
    19:00 +25°C° 0.4 mm 1 m/s 706 mmHg 89%
    20:00 +24°C° 0.4 mm 1 m/s 706 mmHg 90%
    21:00 +24°C° 0.4 mm 1 m/s 707 mmHg 92%
    22:00 +24°C° 0.2 mm 1 m/s 707 mmHg 93%
    23:00 +24°C° 0.2 mm 1 m/s 707 mmHg 94%

    26 Mai, Duminică

    Timp Temperatura Precipitaţii Vânt Presiune Umiditate
    00:00 +23°C° 0.2 mm 1 m/s 707 mmHg 94%
    01:00 +23°C° 0.1 mm 1 m/s 706 mmHg 95%
    02:00 +23°C° 0.1 mm 1 m/s 706 mmHg 95%
    03:00 +23°C° 0.1 mm 1 m/s 706 mmHg 95%
    04:00 +23°C° 0 mm 1 m/s 706 mmHg 95%
    05:00 +23°C° 0 mm 1 m/s 706 mmHg 94%
    06:00 +23°C° 0 mm 1 m/s 706 mmHg 94%
    07:00 +24°C° 0 mm 1 m/s 707 mmHg 88%
    08:00 +25°C° 0 mm 2 m/s 707 mmHg 83%
    09:00 +26°C° 0 mm 2 m/s 708 mmHg 77%
    10:00 +27°C° 0 mm 2 m/s 707 mmHg 71%
    11:00 +29°C° 0 mm 2 m/s 707 mmHg 65%
    12:00 +30°C° 0 mm 2 m/s 707 mmHg 58%
    13:00 +30°C° 0.2 mm 2 m/s 706 mmHg 58%
    14:00 +30°C° 0.2 mm 2 m/s 706 mmHg 58%
    15:00 +31°C° 0.2 mm 2 m/s 705 mmHg 58%
    16:00 +29°C° 0.5 mm 2 m/s 705 mmHg 63%
    17:00 +28°C° 0.5 mm 1 m/s 705 mmHg 69%
    18:00 +27°C° 0.5 mm 1 m/s 705 mmHg 74%
    19:00 +26°C° 0.5 mm 1 m/s 706 mmHg 78%
    20:00 +25°C° 0.5 mm 1 m/s 706 mmHg 82%
    21:00 +24°C° 0.5 mm 1 m/s 707 mmHg 86%
    22:00 +24°C° 0 mm 1 m/s 707 mmHg 89%
    23:00 +23°C° 0 mm 1 m/s 707 mmHg 91%

    27 Mai, Luni

    Timp Temperatura Precipitaţii Vânt Presiune Umiditate
    00:00 +23°C° 0 mm 1 m/s 706 mmHg 94%
    01:00 +23°C° 0 mm 1 m/s 706 mmHg 94%
    02:00 +22°C° 0 mm 1 m/s 705 mmHg 95%
    03:00 +22°C° 0 mm 1 m/s 705 mmHg 95%
    04:00 +22°C° 0 mm 1 m/s 705 mmHg 94%
    05:00 +22°C° 0 mm 1 m/s 705 mmHg 93%
    06:00 +23°C° 0 mm 1 m/s 706 mmHg 92%
    07:00 +24°C° 0.1 mm 1 m/s 706 mmHg 85%
    08:00 +26°C° 0.1 mm 1 m/s 706 mmHg 77%
    09:00 +28°C° 0.1 mm 2 m/s 707 mmHg 70%
    10:00 +29°C° 0 mm 2 m/s 707 mmHg 66%
    11:00 +29°C° 0 mm 2 m/s 706 mmHg 63%
    12:00 +30°C° 0 mm 2 m/s 706 mmHg 60%
    13:00 +31°C° 0.5 mm 1 m/s 705 mmHg 60%
    14:00 +31°C° 0.5 mm 1 m/s 705 mmHg 59%
    15:00 +31°C° 0.5 mm 1 m/s 704 mmHg 59%
    16:00 +30°C° 1.8 mm 1 m/s 704 mmHg 68%
    17:00 +28°C° 1.8 mm 1 m/s 704 mmHg 77%
    18:00 +26°C° 1.8 mm 1 m/s 704 mmHg 86%
    19:00 +25°C° 0.9 mm 1 m/s 705 mmHg 88%
    20:00 +25°C° 0.9 mm 1 m/s 706 mmHg 89%
    21:00 +24°C° 0.9 mm 1 m/s 706 mmHg 90%
    22:00 +24°C° 0.7 mm 1 m/s 706 mmHg 91%
    23:00 +24°C° 0.7 mm 1 m/s 706 mmHg 92%

    28 Mai, Marţi

    Timp Temperatura Precipitaţii Vânt Presiune Umiditate
    00:00 +24°C° 0.7 mm 1 m/s 705 mmHg 93%
    01:00 +21°C° 0.2 mm 0 m/s 705 mmHg 94%
    02:00 +21°C° 0.2 mm 0 m/s 704 mmHg 94%
    03:00 +21°C° 0.2 mm 0 m/s 704 mmHg 95%
    04:00 +21°C° 0 mm 0 m/s 704 mmHg 95%
    05:00 +21°C° 0 mm 0 m/s 704 mmHg 94%
    06:00 +21°C° 0 mm 0 m/s 705 mmHg 94%
    07:00 +25°C° 0 mm 1 m/s 705 mmHg 86%
    08:00 +27°C° 0 mm 1 m/s 705 mmHg 78%
    09:00 +29°C° 0 mm 1 m/s 706 mmHg 69%
    10:00 +30°C° 0.2 mm 1 m/s 705 mmHg 64%
    11:00 +32°C° 0.2 mm 1 m/s 705 mmHg 59%
    12:00 +33°C° 0.2 mm 1 m/s 705 mmHg 54%
    13:00 +32°C° 0.7 mm 1 m/s 704 mmHg 57%
    14:00 +32°C° 0.7 mm 1 m/s 703 mmHg 60%
    15:00 +31°C° 0.7 mm 1 m/s 703 mmHg 63%
    16:00 +30°C° 1.5 mm 1 m/s 703 mmHg 70%
    17:00 +28°C° 1.5 mm 1 m/s 703 mmHg 76%
    18:00 +27°C° 1.5 mm 1 m/s 704 mmHg 83%
    19:00 +25°C° 1.2 mm 0 m/s 704 mmHg 85%
    20:00 +24°C° 1.2 mm 0 m/s 705 mmHg 87%
    21:00 +24°C° 1.2 mm 0 m/s 706 mmHg 89%
    22:00 +24°C° 0.9 mm 0 m/s 705 mmHg 89%
    23:00 +23°C° 0.9 mm 0 m/s 705 mmHg 90%
    Arată mai mult